Flag for Brazil Weather past 2 weeks in Maceió, Alagoas, Brazil

Now
73 °F

Passing clouds.


Feels Like: 72 °F
Forecast: N/A
Wind: 7 mph from Southeast

Location: Maceio Aeroporto

Current Time: Sep 23, 2014 at 7:36:33 PM

Latest Report: Sep 23, 2014 at 7:00 PM


Visibility: N/A

Pressure: 30.04 "Hg

Humidity: 89%

Dew point: 70 °F

Location of MaceióLocation

Historic Weather in Maceió — Graph

°F

Maceió temperature yesterday

Maximum temperature yesterday: 82 °F (at 11:00 AM)
Minimum temperature yesterday: 66 °F (at 12:00 AM)
Average temperature yesterday: 74 °F

Past Weeks' High & Low Weather Summary

 TemperatureHumidityPressure
High82 °F (Sep 12, 11:00 AM)100% (Sep 9, 7:00 PM)30.12 "Hg (Sep 9, 7:00 PM)
Low63 °F (Sep 17, 1:00 AM)51% (Sep 13, 12:00 PM)29.89 "Hg (Sep 22, 2:00 PM)
Average73 °F85%30.03 "Hg
* Reported Sep 8 6:00 PM — Sep 23 6:00 PM, Maceió, Weather by CustomWeather, © 2014

Note: Actual official high and low records may vary slightly from our data, if they occured in-between our weather recording intervals... More about our weather records

Advertising

Maceió weather history for previous 24 hours

 ConditionsComfort  
Time TempWeatherWind HumidityBarometerVisibility
6:00 PM
Sep 23
75 °FPassing clouds.9 mph78%30.04 "HgN/A
5:00 PM77 °FScattered clouds.12 mph74%30.01 "HgN/A
4:00 PM79 °FPartly sunny.15 mph70%30.01 "HgN/A
3:00 PM81 °FPartly sunny.16 mph66%30.01 "HgN/A
2:00 PM81 °FScattered clouds.14 mph66%30.01 "HgN/A
1:00 PM81 °FScattered clouds.16 mph66%30.01 "HgN/A
12:00 PM81 °FScattered clouds.14 mph62%30.04 "HgN/A
11:00 AM81 °FScattered clouds.14 mph66%30.07 "HgN/A
10:00 AM79 °FScattered clouds.13 mph70%30.09 "HgN/A
9:00 AM79 °FScattered clouds.13 mph70%30.09 "HgN/A
8:00 AM75 °FScattered clouds.10 mph83%30.09 "HgN/A
7:00 AM70 °FPartly sunny.No wind100%30.07 "HgN/A
6:00 AM68 °FScattered clouds.2 mph94%30.04 "HgN/A
5:00 AM68 °FPassing clouds.1 mph100%30.04 "HgN/A
4:00 AM68 °FPassing clouds.No wind100%30.01 "HgN/A
3:00 AM66 °FPassing clouds.1 mph100%30.01 "HgN/A
2:00 AM68 °FPassing clouds.No wind94%30.01 "HgN/A
1:00 AM68 °FPassing clouds.No wind100%30.01 "HgN/A
12:00 AM68 °FPassing clouds.No wind100%30.04 "HgN/A
11:00 PM
Sep 22
72 °FPassing clouds.No wind94%30.04 "HgN/A
10:00 PM70 °FPassing clouds.3 mph100%30.04 "HgN/A
9:00 PM70 °FPassing clouds.3 mph94%30.01 "HgN/A
8:00 PM70 °FPassing clouds.5 mph94%29.98 "HgN/A
7:00 PM72 °FClear.7 mph94%29.95 "Hg10 mi
Weather by CustomWeather, © 2014

See weather overviewHow to use our weather pages